Nashua, NH

7:50 AM EDT on October 15, 2019 (GMT -0400)
Boire

Weather History for KASH - August, 2019

Change the Weather History Date:

Friday, August 30, 2019

  Actual Average Record
Temperature  
Mean Temperature 68 °F -  
Max Temperature 84 °F 78 °F 95 °F (1953)
Min Temperature 55 °F 54 °F 36 °F (1965)
Cooling Degree Days 4    
Growing Degree Days 18 (Base 50)    
Moisture  
Dew Point 60 °F    
Average Humidity 73    
Maximum Humidity 100    
Minimum Humidity 47    
Precipitation  
Precipitation 0.00 in - - ()
Sea Level Pressure  
Sea Level Pressure 29.98 in    
Wind  
Wind Speed 2 mph ()    
Max Wind Speed 9 mph    
Max Gust Speed 22 mph    
Visibility 10.0 miles    
Events      
Averages and records for this station are not official NWS values.
T = Trace of Precipitation, MM = Missing Value Source: Averaged Metar Reports

Daily Weather History Graph

Daily Weather History Graph

Search for Another Location

Airport or City:

Astronomy

Aug. 30, 2019 Rise Set
Actual Time 6:08 AM EDT 7:24 PM EDT
Civil Twilight 5:39 AM EDT 7:53 PM EDT
Nautical Twilight 5:03 AM EDT 8:28 PM EDT
Astronomical Twilight 4:26 AM EDT 9:05 PM EDT
Moon 6:03 AM EDT (8/30) 7:59 PM EDT (8/30)
Length of Visible Light 14h 14m
Length of Day
13h 16m
New Moon, 0% of the Moon is Illuminated
Aug 30
New Moon
Sep 5
First Quarter
Sep 14
Full
Sep 21
Last Quarter
Sep 28
New

Hourly Weather History & Observations

Time (EDT) Temp. Heat Index Dew Point Humidity Pressure Visibility Wind Dir Wind Speed Gust Speed Precip Events Conditions
12:56 AM 61.0 °F - 59.0 °F 93% 29.96 in 10.0 mi Calm Calm - N/A   Clear
1:56 AM 59.0 °F - 59.0 °F 100% 29.95 in 10.0 mi Calm Calm - N/A   Clear
2:56 AM 57.0 °F - 57.0 °F 100% 29.95 in 10.0 mi Calm Calm - N/A   Clear
3:56 AM 55.9 °F - 55.9 °F 100% 29.97 in 10.0 mi Calm Calm - N/A   Clear
4:56 AM 55.0 °F - 55.0 °F 100% 29.97 in 10.0 mi Calm Calm - N/A   Clear
5:56 AM 55.0 °F - 55.0 °F 100% 29.99 in 10.0 mi Calm Calm - N/A   Clear
6:56 AM 57.0 °F - 57.0 °F 100% 29.99 in 10.0 mi Calm Calm - N/A   Clear
7:56 AM 64.0 °F - 59.0 °F 84% 29.99 in 10.0 mi Variable 3.5 mph - N/A   Clear
8:56 AM 70.0 °F - 59.0 °F 68% 29.99 in 10.0 mi Variable 6.9 mph - N/A   Clear
9:56 AM 73.0 °F - 61.0 °F 66% 29.97 in 10.0 mi Variable 4.6 mph - N/A   Clear
10:56 AM 77.0 °F - 60.1 °F 56% 29.97 in 10.0 mi Variable 5.8 mph - N/A   Clear
11:56 AM 79.0 °F - 59.0 °F 50% 29.95 in 10.0 mi Variable 6.9 mph - N/A   Clear
12:56 PM 82.0 °F 82.4 °F 60.1 °F 47% 29.94 in 10.0 mi Variable 4.6 mph - N/A   Clear
1:56 PM 82.9 °F 83.7 °F 62.1 °F 49% 29.95 in 10.0 mi West 9.2 mph 18.4 mph N/A   Scattered Clouds
2:56 PM 82.0 °F 83.1 °F 63.0 °F 52% 29.95 in 10.0 mi West 8.1 mph 21.9 mph N/A   Mostly Cloudy
3:56 PM 82.0 °F 83.4 °F 64.0 °F 54% 29.94 in 10.0 mi West 5.8 mph 17.3 mph N/A   Mostly Cloudy
4:56 PM 82.0 °F 83.8 °F 64.9 °F 56% 29.95 in 10.0 mi West 6.9 mph - N/A   Scattered Clouds
5:56 PM 81.0 °F 82.5 °F 64.0 °F 56% 29.95 in 10.0 mi West 6.9 mph 13.8 mph N/A   Partly Cloudy
6:56 PM 78.1 °F - 62.1 °F 58% 29.97 in 10.0 mi West 4.6 mph - N/A   Partly Cloudy
7:56 PM 73.0 °F - 64.0 °F 73% 30.00 in 10.0 mi Calm Calm - N/A   Partly Cloudy
8:56 PM 72.0 °F - 64.0 °F 76% 30.04 in 10.0 mi Calm Calm - N/A   Clear
9:56 PM 72.0 °F - 59.0 °F 64% 30.05 in 10.0 mi West 4.6 mph - N/A   Clear
10:56 PM 70.0 °F - 54.0 °F 57% 30.07 in 10.0 mi West 4.6 mph - N/A   Clear
11:56 PM 63.0 °F - 57.9 °F 84% 30.09 in 10.0 mi WNW 4.6 mph - N/A   Clear